Location: Asheville, NC
(35.6000°N, 82.5500°W)
Time: 12:58:01
(UTC-05:00)

N. Korean satellite - Pass Details

Date: 12 January 2018
Orbit: 459 x 515 km, 97.2° (Epoch: 17 January)

Event Time Altitude Azimuth Distance (km) Brightness Sun altitude
Rises 06:50:46 0° 18° (NNE) 2,493 10.2 -10.0°
Reaches altitude 10° 06:52:54 10° 25° (NNE) 1,609 9.3 -9.6°
Maximum altitude 06:56:12 43° 99° (E) 651 7.8 -9.0°
Drops below altitude 10° 06:59:28 10° 172° (S) 1,592 9.6 -8.4°
Sets 07:01:33 0° 179° (S) 2,462 10.5 -8.0°
